Location: High Meadows Obseravatory
(40.7417°N, 111.5713°W)
Time: 19:30:05
(UTC-06:00)

Envisat - Visible Passes

Search period start: 08 August 2022 00:00
Search period end: 18 August 2022 00:00
Orbit: 763 x 765 km, 98.2° (Epoch: 08 August)

Date Brightness Start Highest point End Pass type
(mag) Time Alt. Az. Time Alt. Az. Time Alt. Az.
08 Aug 5.7 04:34:38 10° ENE 04:37:06 13° E 04:39:33 10° ESE visible
09 Aug 3.8 05:34:39 10° NNE 05:39:38 53° E 05:44:34 10° S visible
10 Aug 5.2 04:58:25 10° NE 05:02:29 24° E 05:06:32 10° SSE visible
11 Aug 3.0 05:59:41 10° NNE 06:04:47 87° WNW 06:09:51 10° SSW visible
12 Aug 4.2 05:22:58 10° NNE 05:27:46 41° E 05:32:33 10° SSE visible
13 Aug 5.5 04:47:03 10° NE 04:50:35 19° E 04:54:04 10° SE visible
14 Aug 3.3 05:47:53 10° NNE 05:52:58 74° ESE 05:58:01 10° S visible
15 Aug 4.7 05:11:22 10° NNE 05:15:55 32° E 05:20:25 10° SSE visible
16 Aug 5.7 04:35:56 10° ENE 04:38:38 14° E 04:41:20 10° ESE visible
17 Aug 3.7 05:36:09 10° NNE 05:41:09 57° E 05:46:07 10° S visible
